This demonstration page uses our WeatherBlox Daily Observations layout. Learn more.

Left ArrowRight Arrow

Hourly Observations for October 25, 2021

Temp ( °F °C ) Dew Point ( °F °C ) Humidity (%) Winds ( mph kmh ) Pressure ( in mb ) Visibility ( mi km ) Precip ( " mm )
12:09 am 00:09 Cloudy 44 6.7 42 5.6 93 93 NNE 10 17 30.02 1017 10 16 N/A
12:53 am 00:53 Cloudy 43 6.1 41 5 93 93 NNE 13 20 30.01 1016 10 16 N/A
1:53 am 01:53 Cloudy 43 6.1 41 5 93 93 N 10 17 30.04 1017 10 16 N/A
2:33 am 02:33 Cloudy 43 6.1 40 4.4 89 89 N 8 13 30.08 1019 10 16 N/A
2:53 am 02:53 Cloudy 43 6.1 40 4.4 89 89 N 8 13 30.06 1018 10 16 N/A
3:01 am 03:01 Cloudy 43 6.1 40 4.4 89 89 N 7 11 30.08 1019 10 16 N/A
3:53 am 03:53 Cloudy 42 5.6 40 4.4 92 92 NNE 8 13 30.05 1018 10 16 N/A
4:53 am 04:53 Cloudy 42 5.6 40 4.4 92 92 N 7 11 30.06 1018 9 14 N/A
5:00 am 05:00 Cloudy 41 5 40 4.4 96 96 NNE 8 13 30.09 1019 9 14 N/A
5:34 am 05:34 Cloudy 41 5 40 4.4 96 96 NNE 6 9 30.11 1019 10 16 N/A
5:53 am 05:53 Cloudy 42 5.6 39 3.9 89 89 N 5 7 30.09 1019 10 16 N/A
6:53 am 06:53 Cloudy 41 5 40 4.4 96 96 NE 6 9 30.10 1019 10 16 N/A
7:53 am 07:53 Cloudy 41 5 40 4.4 96 96 NNE 7 11 30.11 1020 10 16 N/A
8:53 am 08:53 Cloudy 41 5 39 3.9 93 93 ENE 6 9 30.12 1020 10 16 N/A
9:53 am 09:53 Cloudy 41 5 39 3.9 93 93 E 5 7 30.12 1020 10 16 N/A
10:09 am 10:09 Cloudy 41 5 40 4.4 96 96 E 5 7 30.15 1021 9 14 N/A
10:53 am 10:53 Cloudy 41 5 40 4.4 96 96 E 6 9 30.13 1020 7 11 N/A
11:53 am 11:53 Cloudy with Mist and Fog 42 5.6 40 4.4 92 92 ESE 6 9 30.12 1020 4 6 N/A
12:53 pm 12:53 Cloudy 43 6.1 41 5 93 93 SSE 8 13 30.12 1020 10 16 N/A
1:53 pm 13:53 Cloudy 43 6.1 42 5.6 97 97 SE 9 15 30.09 1019 10 16 N/A
2:53 pm 14:53 Cloudy 43 6.1 42 5.6 97 97 SE 9 15 30.07 1018 9 14 N/A
3:53 pm 15:53 Cloudy 44 6.7 42 5.6 93 93 SSE 12 19 30.04 1017 10 16 N/A
4:53 pm 16:53 Cloudy 44 6.7 42 5.6 93 93 SE 8 13 30.02 1017 10 16 N/A
5:53 pm 17:53 Cloudy 45 7.2 43 6.1 93 93 SE 10 17 30.01 1016 10 16 N/A
6:53 pm 18:53 Cloudy 45 7.2 43 6.1 93 93 SSE 13 20 30.02 1017 10 16 N/A
7:53 pm 19:53 Cloudy 46 7.8 43 6.1 89 89 SSE 9 15 30.03 1017 10 16 N/A
8:53 pm 20:53 Cloudy 46 7.8 44 6.7 93 93 SSE 9 15 30.02 1017 10 16 N/A
9:13 pm 21:13 Cloudy 46 7.8 44 6.7 93 93 SSE 8 13 30.01 1016 10 16 N/A
9:53 pm 21:53 Partly Cloudy 44 6.7 43 6.1 96 96 SE 10 17 30.01 1016 10 16 N/A
10:53 pm 22:53 Clear 42 5.6 41 5 96 96 SE 7 11 30.01 1016 10 16 N/A
11:53 pm 23:53 Clear 42 5.6 41 5 96 96 SE 8 13 29.99 1016 9 14 N/A

Powered by AerisWeather